Time,TemperatureF,DewpointF,PressureIn,WindDirection,WindDirectionDegrees,WindSpeedMPH,WindSpeedGustMPH,Humidity,HourlyPrecipIn,Conditions,Clouds,dailyrainin,SolarRadiationWatts/m^2,SoftwareType,DateUTC
2013-04-29 00:01:00,69.7,68.8,29.90,ESE,113,2.3,2.3,97,0.00,RA,SKC,0.00,0.0,WeatherDisplay:10.37,2013-04-29 05:01:00,
2013-04-29 00:06:00,69.6,68.4,29.90,ESE,116,2.3,2.3,96,0.00,RA,SKC,0.00,0.0,WeatherDisplay:10.37,2013-04-29 05:06:00,
2013-04-29 00:11:00,69.5,68.3,29.91,ESE,116,1.1,1.1,96,0.00,CLR,SKC,0.00,0.0,WeatherDisplay:10.37,2013-04-29 05:11:00,
2013-04-29 00:16:00,69.4,68.2,29.91,ESE,116,1.1,1.1,96,0.00,CLR,SKC,0.00,0.0,WeatherDisplay:10.37,2013-04-29 05:16:00,
2013-04-29 00:21:00,69.4,68.2,29.91,ESE,116,0.0,0.0,96,0.00,CLR,SKC,0.00,0.0,WeatherDisplay:10.37,2013-04-29 05:21:00,
2013-04-29 00:26:00,69.4,68.5,29.90,ESE,116,0.0,0.0,97,0.00,CLR,SKC,0.00,0.0,WeatherDisplay:10.37,2013-04-29 05:26:00,
2013-04-29 00:31:00,69.4,68.5,29.90,ESE,116,0.0,0.0,97,0.00,BKN,SKC,0.00,0.0,WeatherDisplay:10.37,2013-04-29 05:31:00,
2013-04-29 00:36:00,69.4,68.5,29.90,ESE,116,0.0,0.0,97,0.00,BKN,SKC,0.00,0.0,WeatherDisplay:10.37,2013-04-29 05:36:00,
2013-04-29 00:41:00,69.3,68.4,29.90,ESE,116,0.0,0.0,97,0.00,BKN,SKC,0.00,0.0,WeatherDisplay:10.37,2013-04-29 05:41:00,
2013-04-29 00:46:00,69.3,68.4,29.90,ESE,116,0.0,0.0,97,0.00,BKN,SKC,0.00,0.0,WeatherDisplay:10.37,2013-04-29 05:46:00,
2013-04-29 00:51:00,69.3,68.4,29.90,ESE,116,0.0,0.0,97,0.00,BKN,SKC,0.00,0.0,WeatherDisplay:10.37,2013-04-29 05:51:00,
2013-04-29 00:56:00,69.3,68.4,29.90,ESE,116,0.0,0.0,97,0.00,BKN,SKC,0.00,0.0,WeatherDisplay:10.37,2013-04-29 05:56:00,
2013-04-29 01:01:00,69.3,68.4,29.90,ESE,116,0.0,0.0,97,0.00,BKN,SKC,0.00,0.0,WeatherDisplay:10.37,2013-04-29 06:01:00,
2013-04-29 01:06:00,69.3,68.4,29.90,ESE,116,0.0,0.0,97,0.00,-RA,SKC,0.00,0.0,WeatherDisplay:10.37,2013-04-29 06:06:00,
2013-04-29 01:11:00,69.3,68.4,29.90,ESE,116,1.1,1.1,97,0.00,-RA,SKC,0.01,0.0,WeatherDisplay:10.37,2013-04-29 06:11:00,
2013-04-29 01:16:00,69.2,68.3,29.90,ESE,116,0.0,0.0,97,0.01,-RA,SKC,0.01,0.0,WeatherDisplay:10.37,2013-04-29 06:16:00,
2013-04-29 01:21:00,69.2,68.3,29.90,ESE,116,0.0,0.0,97,0.01,-RA,SKC,0.01,0.0,WeatherDisplay:10.37,2013-04-29 06:21:00,
2013-04-29 01:26:00,69.2,68.3,29.88,ESE,116,0.0,0.0,97,0.01,-RA,SKC,0.01,0.0,WeatherDisplay:10.37,2013-04-29 06:26:00,
2013-04-29 01:31:00,69.1,68.2,29.88,ESE,116,0.0,0.0,97,0.01,-RA,SKC,0.01,0.0,WeatherDisplay:10.37,2013-04-29 06:31:00,
2013-04-29 01:36:00,69.1,68.2,29.88,ESE,116,0.0,0.0,97,0.01,-RA,SKC,0.01,0.0,WeatherDisplay:10.37,2013-04-29 06:36:00,
2013-04-29 01:41:00,69.1,68.2,29.88,ESE,116,1.1,1.1,97,0.01,-RA,SKC,0.01,0.0,WeatherDisplay:10.37,2013-04-29 06:41:00,
2013-04-29 01:46:00,69.1,68.2,29.88,ESE,116,0.0,0.0,97,0.01,-RA,SKC,0.01,0.0,WeatherDisplay:10.37,2013-04-29 06:46:00,
2013-04-29 01:51:00,69.0,68.1,29.88,ESE,116,0.0,0.0,97,0.01,-RA,SKC,0.01,0.0,WeatherDisplay:10.37,2013-04-29 06:51:00,
2013-04-29 01:56:00,69.0,68.1,29.86,ESE,116,1.1,1.1,97,0.01,-RA,SKC,0.01,0.0,WeatherDisplay:10.37,2013-04-29 06:56:00,
2013-04-29 02:01:00,68.8,67.9,29.86,ESE,116,2.3,2.3,97,0.01,-RA,SKC,0.01,0.0,WeatherDisplay:10.37,2013-04-29 07:01:00,
2013-04-29 02:06:00,68.8,67.9,29.86,ESE,116,2.3,2.3,97,0.01,OVC,SKC,0.01,0.0,WeatherDisplay:10.37,2013-04-29 07:06:00,
2013-04-29 02:11:00,68.7,67.8,29.85,NNE,32,3.5,3.5,97,0.01,OVC,SKC,0.01,0.0,WeatherDisplay:10.37,2013-04-29 07:11:00,
2013-04-29 02:16:00,68.7,67.8,29.85,NNE,13,3.5,3.5,97,0.00,OVC,SKC,0.01,0.0,WeatherDisplay:10.37,2013-04-29 07:16:00,
2013-04-29 02:21:00,68.7,67.8,29.85,NNE,13,3.5,3.5,97,0.00,OVC,SKC,0.01,0.0,WeatherDisplay:10.37,2013-04-29 07:21:00,
2013-04-29 02:26:00,68.7,67.8,29.84,NNE,13,2.3,2.3,97,0.00,OVC,SKC,0.01,0.0,WeatherDisplay:10.37,2013-04-29 07:26:00,
2013-04-29 02:31:00,68.8,67.9,29.84,NE,40,4.0,4.0,97,0.00,OVC,SKC,0.01,0.0,WeatherDisplay:10.37,2013-04-29 07:31:00,
2013-04-29 02:36:00,68.8,67.9,29.84,NE,36,3.5,3.5,97,0.00,OVC,SKC,0.01,0.0,WeatherDisplay:10.37,2013-04-29 07:36:00,
2013-04-29 02:41:00,68.7,67.8,29.82,NE,53,4.0,4.0,97,0.00,OVC,SKC,0.01,0.0,WeatherDisplay:10.37,2013-04-29 07:41:00,
2013-04-29 02:46:00,68.5,67.6,29.82,ENE,64,6.0,6.0,97,0.00,OVC,SKC,0.01,0.0,WeatherDisplay:10.37,2013-04-29 07:46:00,
2013-04-29 02:51:00,68.5,67.6,29.82,ENE,61,9.2,9.2,97,0.00,OVC,SKC,0.01,0.0,WeatherDisplay:10.37,2013-04-29 07:51:00,
2013-04-29 02:56:00,68.7,67.8,29.81,ENE,65,6.9,6.9,97,0.00,OVC,SKC,0.01,0.0,WeatherDisplay:10.37,2013-04-29 07:56:00,
2013-04-29 03:01:00,68.7,67.8,29.81,ENE,59,3.5,3.5,97,0.00,OVC,SKC,0.01,0.0,WeatherDisplay:10.37,2013-04-29 08:01:00,
2013-04-29 03:06:00,68.8,67.9,29.81,ENE,75,5.8,5.8,97,0.00,OVC,SKC,0.01,0.0,WeatherDisplay:10.37,2013-04-29 08:06:00,
2013-04-29 03:11:00,68.6,67.7,29.83,East,92,4.6,4.6,97,0.00,OVC,SKC,0.01,0.0,WeatherDisplay:10.37,2013-04-29 08:11:00,
2013-04-29 03:16:00,69.0,68.1,29.83,ENE,60,8.1,8.1,97,0.00,OVC,SKC,0.01,0.0,WeatherDisplay:10.37,2013-04-29 08:16:00,
2013-04-29 03:21:00,69.2,68.3,29.83,East,79,5.8,5.8,97,0.00,OVC,SKC,0.01,0.0,WeatherDisplay:10.37,2013-04-29 08:21:00,
2013-04-29 03:26:00,69.3,68.1,29.83,East,95,5.8,5.8,96,0.00,OVC,SKC,0.01,0.0,WeatherDisplay:10.37,2013-04-29 08:26:00,
2013-04-29 03:31:00,69.5,68.3,29.83,ENE,73,5.8,5.8,96,0.00,OVC,SKC,0.01,0.0,WeatherDisplay:10.37,2013-04-29 08:31:00,
2013-04-29 03:36:00,69.6,68.4,29.83,ENE,69,5.0,5.0,96,0.00,OVC,SKC,0.01,0.0,WeatherDisplay:10.37,2013-04-29 08:36:00,
2013-04-29 03:41:00,69.8,68.6,29.83,East,90,9.2,9.2,96,0.00,OVC,SKC,0.01,0.0,WeatherDisplay:10.37,2013-04-29 08:41:00,
2013-04-29 03:46:00,69.9,68.7,29.83,East,85,6.9,6.9,96,0.00,OVC,SKC,0.01,0.0,WeatherDisplay:10.37,2013-04-29 08:46:00,
2013-04-29 03:51:00,69.9,68.7,29.83,ENE,70,3.5,3.5,96,0.00,OVC,SKC,0.01,0.0,WeatherDisplay:10.37,2013-04-29 08:51:00,
2013-04-29 03:56:00,69.9,68.7,29.84,East,80,3.5,3.5,96,0.00,OVC,SKC,0.01,0.0,WeatherDisplay:10.37,2013-04-29 08:56:00,
2013-04-29 04:01:00,69.9,68.7,29.84,ESE,102,3.5,3.5,96,0.00,OVC,SKC,0.01,0.0,WeatherDisplay:10.37,2013-04-29 09:01:00,
2013-04-29 04:06:00,69.8,68.9,29.84,ESE,102,2.3,2.3,97,0.00,OVC,SKC,0.01,0.0,WeatherDisplay:10.37,2013-04-29 09:06:00,
2013-04-29 04:11:00,69.8,68.9,29.85,East,97,4.0,4.0,97,0.00,OVC,SKC,0.01,0.0,WeatherDisplay:10.37,2013-04-29 09:11:00,
2013-04-29 04:16:00,69.8,68.9,29.85,ESE,104,4.6,4.6,97,0.00,OVC,SKC,0.01,0.0,WeatherDisplay:10.37,2013-04-29 09:16:00,
2013-04-29 04:21:00,69.7,68.8,29.85,East,96,3.5,3.5,97,0.00,OVC,SKC,0.01,0.0,WeatherDisplay:10.37,2013-04-29 09:21:00,
2013-04-29 04:26:00,69.7,68.8,29.85,East,96,2.3,2.3,97,0.00,OVC,SKC,0.01,0.0,WeatherDisplay:10.37,2013-04-29 09:26:00,
2013-04-29 04:31:00,69.6,68.4,29.85,ESE,118,3.5,3.5,96,0.00,OVC,SKC,0.01,0.0,WeatherDisplay:10.37,2013-04-29 09:31:00,
2013-04-29 04:36:00,69.6,68.4,29.85,ESE,119,3.0,3.0,96,0.00,OVC,SKC,0.01,0.0,WeatherDisplay:10.37,2013-04-29 09:36:00,
2013-04-29 04:41:00,69.6,68.4,29.85,ESE,119,2.3,2.3,96,0.00,OVC,SKC,0.01,0.0,WeatherDisplay:10.37,2013-04-29 09:41:00,
2013-04-29 04:46:00,69.6,68.4,29.85,ESE,119,2.3,2.3,96,0.00,OVC,SKC,0.01,0.0,WeatherDisplay:10.37,2013-04-29 09:46:00,
2013-04-29 04:51:00,69.6,68.4,29.85,ESE,119,1.1,0.0,96,0.00,OVC,SKC,0.01,0.0,WeatherDisplay:10.37,2013-04-29 09:51:00,
2013-04-29 04:56:00,69.6,68.4,29.86,ESE,119,1.1,1.1,96,0.00,OVC,SKC,0.01,0.0,WeatherDisplay:10.37,2013-04-29 09:56:00,
2013-04-29 05:01:00,69.5,68.3,29.86,ESE,119,0.0,0.0,96,0.00,OVC,SKC,0.01,0.0,WeatherDisplay:10.37,2013-04-29 10:01:00,
2013-04-29 05:06:00,69.5,68.3,29.86,ESE,119,0.0,0.0,96,0.00,OVC,SKC,0.01,0.0,WeatherDisplay:10.37,2013-04-29 10:06:00,
2013-04-29 05:11:00,69.5,68.6,29.86,ESE,119,1.1,0.0,97,0.00,OVC,SKC,0.01,0.0,WeatherDisplay:10.37,2013-04-29 10:11:00,
2013-04-29 05:16:00,69.5,68.6,29.86,ESE,119,0.0,0.0,97,0.00,OVC,SKC,0.01,0.0,WeatherDisplay:10.37,2013-04-29 10:16:00,
2013-04-29 05:21:00,69.4,68.5,29.86,ESE,119,0.0,0.0,97,0.00,OVC,SKC,0.01,0.0,WeatherDisplay:10.37,2013-04-29 10:21:00,
2013-04-29 05:26:00,69.4,68.5,29.86,ESE,119,0.0,0.0,97,0.00,OVC,SKC,0.01,0.0,WeatherDisplay:10.37,2013-04-29 10:26:00,
2013-04-29 05:31:00,69.5,68.6,29.86,ESE,119,1.0,1.0,97,0.00,OVC,SKC,0.01,0.0,WeatherDisplay:10.37,2013-04-29 10:31:00,
2013-04-29 05:36:00,69.5,68.6,29.86,ESE,119,1.1,1.1,97,0.00,OVC,SKC,0.01,0.0,WeatherDisplay:10.37,2013-04-29 10:36:00,
2013-04-29 05:41:00,69.5,68.6,29.85,ESE,119,0.0,0.0,97,0.00,OVC,SKC,0.01,0.0,WeatherDisplay:10.37,2013-04-29 10:41:00,
2013-04-29 05:46:00,69.4,68.5,29.85,ESE,119,1.1,1.1,97,0.00,OVC,SKC,0.01,0.0,WeatherDisplay:10.37,2013-04-29 10:46:00,
2013-04-29 05:51:00,69.5,68.6,29.85,ESE,119,0.0,0.1,97,0.00,OVC,SKC,0.01,0.0,WeatherDisplay:10.37,2013-04-29 10:51:00,
2013-04-29 05:56:00,69.4,68.5,29.86,ESE,119,1.1,0.0,97,0.00,OVC,SKC,0.01,0.0,WeatherDisplay:10.37,2013-04-29 10:56:00,
2013-04-29 06:01:00,69.5,68.6,29.86,ESE,119,0.0,0.0,97,0.00,OVC,SKC,0.01,0.0,WeatherDisplay:10.37,2013-04-29 11:01:00,
2013-04-29 06:06:00,69.4,68.5,29.86,ESE,119,0.0,0.2,97,0.00,OVC,SKC,0.01,0.0,WeatherDisplay:10.37,2013-04-29 11:06:00,
2013-04-29 06:11:00,69.4,68.5,29.86,ESE,119,0.0,0.0,97,0.00,OVC,SKC,0.01,0.0,WeatherDisplay:10.37,2013-04-29 11:11:00,
2013-04-29 06:16:00,69.4,68.5,29.86,ESE,119,0.0,0.0,97,0.00,OVC,SKC,0.01,0.0,WeatherDisplay:10.37,2013-04-29 11:16:00,
2013-04-29 06:21:00,69.4,68.5,29.86,ESE,119,0.0,0.0,97,0.00,OVC,SKC,0.01,0.0,WeatherDisplay:10.37,2013-04-29 11:21:00,
2013-04-29 06:26:00,69.3,68.4,29.87,ESE,119,0.0,0.0,97,0.00,OVC,SKC,0.01,0.0,WeatherDisplay:10.37,2013-04-29 11:26:00,
2013-04-29 06:31:00,69.3,68.4,29.87,ESE,119,0.0,0.0,97,0.00,OVC,SKC,0.01,0.0,WeatherDisplay:10.37,2013-04-29 11:31:00,
2013-04-29 06:36:00,69.3,68.4,29.87,ESE,119,1.1,1.1,97,0.00,OVC,SKC,0.01,0.0,WeatherDisplay:10.37,2013-04-29 11:36:00,
2013-04-29 06:41:00,69.3,68.4,29.86,ESE,119,0.0,0.0,97,0.00,OVC,SKC,0.01,0.0,WeatherDisplay:10.37,2013-04-29 11:41:00,
2013-04-29 06:46:00,69.2,68.3,29.86,ESE,119,2.3,2.3,97,0.00,OVC,SKC,0.01,0.0,WeatherDisplay:10.37,2013-04-29 11:46:00,
2013-04-29 06:51:00,69.2,68.3,29.86,ESE,119,1.1,0.0,97,0.00,OVC,SKC,0.01,0.0,WeatherDisplay:10.37,2013-04-29 11:51:00,
2013-04-29 06:56:00,69.1,68.2,29.86,ESE,119,1.1,0.0,97,0.00,OVC,SKC,0.01,5.0,WeatherDisplay:10.37,2013-04-29 11:56:00,
2013-04-29 07:01:00,69.0,68.1,29.86,SE,130,0.0,0.0,97,0.00,OVC,SKC,0.01,7.0,WeatherDisplay:10.37,2013-04-29 12:01:00,
2013-04-29 07:06:00,68.9,67.7,29.86,SE,130,0.0,0.0,96,0.00,-RA,SKC,0.01,9.0,WeatherDisplay:10.37,2013-04-29 12:06:00,
2013-04-29 07:11:00,68.9,67.7,29.87,SE,130,0.0,0.0,96,0.00,-RA,SKC,0.01,12.0,WeatherDisplay:10.37,2013-04-29 12:11:00,
2013-04-29 07:16:00,69.0,67.8,29.87,SE,130,0.0,0.0,96,0.00,-RA,SKC,0.01,14.0,WeatherDisplay:10.37,2013-04-29 12:16:00,
2013-04-29 07:21:00,68.9,68.0,29.87,SE,130,0.0,0.0,97,0.00,-RA,SKC,0.01,19.0,WeatherDisplay:10.37,2013-04-29 12:21:00,
2013-04-29 07:26:00,69.0,68.1,29.86,SE,130,0.0,0.0,97,0.00,-RA,SKC,0.01,26.0,WeatherDisplay:10.37,2013-04-29 12:26:00,
2013-04-29 07:31:00,69.1,68.2,29.86,SE,130,0.0,0.0,97,0.00,-RA,SKC,0.01,65.0,WeatherDisplay:10.37,2013-04-29 12:31:00,
2013-04-29 07:36:00,69.2,68.3,29.86,SE,130,0.0,0.0,97,0.00,-RA,SKC,0.01,62.0,WeatherDisplay:10.37,2013-04-29 12:36:00,
2013-04-29 07:41:00,69.6,68.7,29.87,SE,130,0.0,0.0,97,0.00,-RA,SKC,0.01,56.0,WeatherDisplay:10.37,2013-04-29 12:41:00,
2013-04-29 07:46:00,69.8,68.9,29.87,SE,130,0.0,0.0,97,0.00,-RA,SKC,0.01,54.0,WeatherDisplay:10.37,2013-04-29 12:46:00,
2013-04-29 07:51:00,69.9,69.0,29.87,SE,130,1.1,0.0,97,0.00,-RA,SKC,0.01,58.0,WeatherDisplay:10.37,2013-04-29 12:51:00,
2013-04-29 07:56:00,70.0,69.1,29.87,SE,130,0.0,0.0,97,0.00,-RA,SKC,0.01,62.0,WeatherDisplay:10.37,2013-04-29 12:56:00,
2013-04-29 08:01:00,70.1,68.9,29.87,SE,130,0.0,0.0,96,0.00,-RA,SKC,0.01,79.0,WeatherDisplay:10.37,2013-04-29 13:01:00,
2013-04-29 08:06:00,70.3,69.1,29.87,SE,130,0.0,0.0,96,0.00,-SN,SKC,0.01,116.0,WeatherDisplay:10.37,2013-04-29 13:06:00,
2013-04-29 08:11:00,70.4,69.2,29.87,SE,130,0.0,0.0,96,0.00,-SN,SKC,0.01,169.0,WeatherDisplay:10.37,2013-04-29 13:11:00,
2013-04-29 08:16:00,70.4,69.2,29.87,West,281,4.6,4.6,96,0.00,-SN,SKC,0.01,221.0,WeatherDisplay:10.37,2013-04-29 13:16:00,
2013-04-29 08:21:00,70.3,69.1,29.87,WNW,298,3.5,3.5,96,0.00,-SN,SKC,0.01,262.0,WeatherDisplay:10.37,2013-04-29 13:21:00,
2013-04-29 08:26:00,70.4,69.2,29.85,NNW,342,3.5,3.5,96,0.00,-SN,SKC,0.01,285.0,WeatherDisplay:10.37,2013-04-29 13:26:00,
2013-04-29 08:31:00,70.8,69.6,29.85,NNE,15,2.3,2.3,96,0.00,-SN,SKC,0.01,301.0,WeatherDisplay:10.37,2013-04-29 13:31:00,
2013-04-29 08:36:00,70.8,69.3,29.85,NNW,337,4.6,4.6,95,0.00,-SN,SKC,0.01,318.0,WeatherDisplay:10.37,2013-04-29 13:36:00,
2013-04-29 08:41:00,70.8,69.3,29.85,NW,315,3.5,3.5,95,0.00,-SN,SKC,0.01,334.0,WeatherDisplay:10.37,2013-04-29 13:41:00,
2013-04-29 08:46:00,70.9,69.4,29.85,North,349,2.3,2.3,95,0.00,-SN,SKC,0.01,359.0,WeatherDisplay:10.37,2013-04-29 13:46:00,
2013-04-29 08:51:00,71.0,69.5,29.85,North,5,3.0,3.0,95,0.00,-SN,SKC,0.01,376.0,WeatherDisplay:10.37,2013-04-29 13:51:00,
2013-04-29 08:56:00,71.2,69.1,29.86,NNE,16,3.5,3.5,93,0.00,-SN,SKC,0.01,396.0,WeatherDisplay:10.37,2013-04-29 13:56:00,
2013-04-29 09:01:00,71.5,69.4,29.86,North,360,3.5,3.5,93,0.00,-SN,SKC,0.01,411.0,WeatherDisplay:10.37,2013-04-29 14:01:00,
2013-04-29 09:06:00,71.9,69.4,29.86,ENE,70,5.8,5.8,92,0.00,-SN,SKC,0.01,446.0,WeatherDisplay:10.37,2013-04-29 14:06:00,
2013-04-29 09:11:00,72.1,69.3,29.86,East,82,5.8,5.8,91,0.00,-SN,SKC,0.01,452.0,WeatherDisplay:10.37,2013-04-29 14:11:00,
2013-04-29 09:16:00,72.2,69.4,29.86,ENE,72,5.8,5.8,91,0.00,-SN,SKC,0.01,466.0,WeatherDisplay:10.37,2013-04-29 14:16:00,
2013-04-29 09:21:00,72.3,69.5,29.86,NE,55,4.6,4.6,91,0.00,-SN,SKC,0.01,469.0,WeatherDisplay:10.37,2013-04-29 14:21:00,
2013-04-29 09:26:00,72.6,69.8,29.86,ENE,73,6.0,6.0,91,0.00,-SN,SKC,0.01,506.0,WeatherDisplay:10.37,2013-04-29 14:26:00,
2013-04-29 09:31:00,72.5,69.4,29.86,ENE,63,4.6,4.6,90,0.00,-SN,SKC,0.01,496.0,WeatherDisplay:10.37,2013-04-29 14:31:00,
2013-04-29 09:36:00,72.7,69.6,29.86,ENE,63,3.5,3.5,90,0.00,-SN,SKC,0.01,531.0,WeatherDisplay:10.37,2013-04-29 14:36:00,
2013-04-29 09:41:00,72.9,69.5,29.87,East,98,4.6,4.6,89,0.00,-SN,SKC,0.01,506.0,WeatherDisplay:10.37,2013-04-29 14:41:00,
2013-04-29 09:46:00,73.0,69.2,29.87,East,86,5.8,5.8,88,0.00,-SN,SKC,0.01,283.0,WeatherDisplay:10.37,2013-04-29 14:46:00,
2013-04-29 09:51:00,73.0,69.2,29.87,East,84,5.0,5.0,88,0.00,-SN,SKC,0.01,283.0,WeatherDisplay:10.37,2013-04-29 14:51:00,
2013-04-29 09:56:00,73.1,69.7,29.87,East,97,4.6,4.6,89,0.00,-SN,SKC,0.01,592.0,WeatherDisplay:10.37,2013-04-29 14:56:00,
2013-04-29 10:01:00,73.2,70.1,29.87,East,96,4.6,4.6,90,0.00,-SN,SKC,0.01,613.0,WeatherDisplay:10.37,2013-04-29 15:01:00,
2013-04-29 10:06:00,72.6,69.5,29.87,East,86,5.8,5.8,90,0.00,-RA,SKC,0.01,399.0,WeatherDisplay:10.37,2013-04-29 15:06:00,
2013-04-29 10:11:00,72.4,69.6,29.87,East,92,3.5,3.5,91,0.00,-RA,SKC,0.01,770.0,WeatherDisplay:10.37,2013-04-29 15:11:00,
2013-04-29 10:16:00,72.4,69.6,29.87,ENE,76,3.5,3.5,91,0.00,-RA,SKC,0.01,483.0,WeatherDisplay:10.37,2013-04-29 15:16:00,
2013-04-29 10:21:00,72.6,69.8,29.87,ESE,115,3.5,3.5,91,0.00,-RA,SKC,0.01,557.0,WeatherDisplay:10.37,2013-04-29 15:21:00,
2013-04-29 10:26:00,72.9,69.8,29.87,East,96,3.5,3.5,90,0.00,-RA,SKC,0.01,636.0,WeatherDisplay:10.37,2013-04-29 15:26:00,
2013-04-29 10:31:00,73.1,69.7,29.87,East,96,4.0,4.0,89,0.00,-RA,SKC,0.01,638.0,WeatherDisplay:10.37,2013-04-29 15:31:00,
2013-04-29 10:36:00,73.1,69.0,29.87,East,93,4.6,4.6,87,0.00,-RA,SKC,0.01,396.0,WeatherDisplay:10.37,2013-04-29 15:36:00,
2013-04-29 10:41:00,73.2,69.1,29.87,ESE,105,5.0,5.0,87,0.00,-RA,SKC,0.01,515.0,WeatherDisplay:10.37,2013-04-29 15:41:00,
2013-04-29 10:46:00,73.5,69.4,29.87,East,98,4.6,4.6,87,0.00,-RA,SKC,0.01,606.0,WeatherDisplay:10.37,2013-04-29 15:46:00,
2013-04-29 10:51:00,74.0,69.5,29.87,ESE,103,3.5,3.5,86,0.00,-RA,SKC,0.01,459.0,WeatherDisplay:10.37,2013-04-29 15:51:00,
2013-04-29 10:56:00,74.2,69.7,29.87,ESE,114,6.9,6.9,86,0.00,-RA,SKC,0.01,633.0,WeatherDisplay:10.37,2013-04-29 15:56:00,
2013-04-29 11:01:00,74.2,69.7,29.87,ENE,71,5.8,5.8,86,0.00,-RA,SKC,0.01,944.0,WeatherDisplay:10.37,2013-04-29 16:01:00,
2013-04-29 11:06:00,74.1,70.0,29.87,East,89,5.8,5.8,87,0.00,-SN,SKC,0.01,557.0,WeatherDisplay:10.37,2013-04-29 16:06:00,
2013-04-29 11:11:00,73.8,69.3,29.87,East,92,6.9,6.9,86,0.00,-SN,SKC,0.01,401.0,WeatherDisplay:10.37,2013-04-29 16:11:00,
2013-04-29 11:16:00,73.6,69.2,29.87,ENE,78,8.1,8.1,86,0.00,-SN,SKC,0.01,383.0,WeatherDisplay:10.37,2013-04-29 16:16:00,
2013-04-29 11:21:00,73.6,69.5,29.87,East,89,7.0,7.0,87,0.00,-SN,SKC,0.01,462.0,WeatherDisplay:10.37,2013-04-29 16:21:00,
2013-04-29 11:26:00,73.5,69.4,29.87,East,94,5.8,5.8,87,0.00,-SN,SKC,0.01,380.0,WeatherDisplay:10.37,2013-04-29 16:26:00,
2013-04-29 11:31:00,73.6,69.5,29.87,East,93,8.1,8.1,87,0.00,-SN,SKC,0.01,439.0,WeatherDisplay:10.37,2013-04-29 16:31:00,
2013-04-29 11:36:00,73.8,70.0,29.87,East,97,5.8,5.8,88,0.00,-SN,SKC,0.01,390.0,WeatherDisplay:10.37,2013-04-29 16:36:00,
2013-04-29 11:41:00,73.8,70.0,29.88,ESE,113,5.8,5.8,88,0.00,-SN,SKC,0.01,341.0,WeatherDisplay:10.37,2013-04-29 16:41:00,
2013-04-29 11:46:00,73.6,69.8,29.88,East,98,10.4,10.4,88,0.00,-SN,SKC,0.01,448.0,WeatherDisplay:10.37,2013-04-29 16:46:00,
2013-04-29 11:51:00,73.3,70.2,29.88,East,90,9.2,9.2,90,0.00,-SN,SKC,0.01,524.0,WeatherDisplay:10.37,2013-04-29 16:51:00,
2013-04-29 11:56:00,73.2,70.1,29.88,ENE,78,5.8,5.8,90,0.00,-SN,SKC,0.01,313.0,WeatherDisplay:10.37,2013-04-29 16:56:00,
2013-04-29 12:01:00,73.1,70.3,29.88,East,100,5.8,5.8,91,0.00,-SN,SKC,0.01,330.0,WeatherDisplay:10.37,2013-04-29 17:01:00,
2013-04-29 12:06:00,73.1,70.3,29.88,East,81,7.0,7.0,91,0.00,OVC,SKC,0.01,330.0,WeatherDisplay:10.37,2013-04-29 17:06:00,
2013-04-29 12:11:00,72.9,70.1,29.88,East,83,5.8,5.8,91,0.00,OVC,SKC,0.01,279.0,WeatherDisplay:10.37,2013-04-29 17:11:00,
2013-04-29 12:16:00,72.9,70.4,29.88,ENE,65,6.9,6.9,92,0.00,OVC,SKC,0.01,325.0,WeatherDisplay:10.37,2013-04-29 17:16:00,
2013-04-29 12:21:00,72.6,70.1,29.88,ENE,77,8.1,8.1,92,0.00,OVC,SKC,0.01,350.0,WeatherDisplay:10.37,2013-04-29 17:21:00,
2013-04-29 12:26:00,72.4,70.3,29.88,ENE,78,5.8,5.8,93,0.00,OVC,SKC,0.01,376.0,WeatherDisplay:10.37,2013-04-29 17:26:00,
2013-04-29 12:31:00,72.4,70.3,29.88,ENE,67,9.2,9.2,93,0.00,OVC,SKC,0.01,403.0,WeatherDisplay:10.37,2013-04-29 17:31:00,
2013-04-29 12:36:00,72.5,70.4,29.88,ENE,65,4.6,4.6,93,0.00,OVC,SKC,0.01,279.0,WeatherDisplay:10.37,2013-04-29 17:36:00,
2013-04-29 12:41:00,72.5,70.4,29.87,East,80,4.0,4.0,93,0.00,OVC,SKC,0.01,352.0,WeatherDisplay:10.37,2013-04-29 17:41:00,
2013-04-29 12:46:00,72.9,70.8,29.87,East,101,4.0,4.0,93,0.00,OVC,SKC,0.01,408.0,WeatherDisplay:10.37,2013-04-29 17:46:00,
2013-04-29 12:51:00,72.8,70.7,29.87,East,89,4.6,4.6,93,0.00,OVC,SKC,0.01,339.0,WeatherDisplay:10.37,2013-04-29 17:51:00,
2013-04-29 12:56:00,72.7,70.2,29.87,ENE,64,5.8,5.8,92,0.00,OVC,SKC,0.01,302.0,WeatherDisplay:10.37,2013-04-29 17:56:00,
2013-04-29 13:01:00,72.7,70.6,29.87,ENE,70,5.8,5.8,93,0.00,OVC,SKC,0.01,345.0,WeatherDisplay:10.37,2013-04-29 18:01:00,
2013-04-29 13:06:00,72.7,70.2,29.87,ENE,78,5.8,5.8,92,0.00,BKN,SKC,0.01,457.0,WeatherDisplay:10.37,2013-04-29 18:06:00,
2013-04-29 13:11:00,72.8,70.7,29.87,East,86,5.8,5.8,93,0.00,BKN,SKC,0.01,489.0,WeatherDisplay:10.37,2013-04-29 18:11:00,
2013-04-29 13:16:00,72.9,70.4,29.87,ENE,71,5.8,5.8,92,0.00,BKN,SKC,0.01,1002.0,WeatherDisplay:10.37,2013-04-29 18:16:00,
2013-04-29 13:21:00,73.0,70.5,29.87,NE,56,5.8,5.8,92,0.00,BKN,SKC,0.01,1083.0,WeatherDisplay:10.37,2013-04-29 18:21:00,
2013-04-29 13:26:00,73.2,70.7,29.86,East,79,6.9,6.9,92,0.00,BKN,SKC,0.01,561.0,WeatherDisplay:10.37,2013-04-29 18:26:00,
2013-04-29 13:31:00,73.3,70.5,29.86,East,90,5.0,5.0,91,0.00,BKN,SKC,0.01,561.0,WeatherDisplay:10.37,2013-04-29 18:31:00,
2013-04-29 13:36:00,73.7,70.9,29.86,ENE,65,9.2,9.2,91,0.00,BKN,SKC,0.01,944.0,WeatherDisplay:10.37,2013-04-29 18:36:00,
2013-04-29 13:41:00,73.7,70.6,29.84,East,95,6.9,6.9,90,0.00,BKN,SKC,0.01,1053.0,WeatherDisplay:10.37,2013-04-29 18:41:00,
2013-04-29 13:46:00,74.3,70.8,29.84,NE,51,10.4,10.4,89,0.00,BKN,SKC,0.01,1014.0,WeatherDisplay:10.37,2013-04-29 18:46:00,
2013-04-29 13:51:00,74.3,71.2,29.84,East,97,8.1,8.1,90,0.00,BKN,SKC,0.01,976.0,WeatherDisplay:10.37,2013-04-29 18:51:00,
2013-04-29 13:56:00,74.0,70.9,29.84,ESE,103,12.7,12.7,90,0.00,BKN,SKC,0.01,916.0,WeatherDisplay:10.37,2013-04-29 18:56:00,
2013-04-29 14:01:00,73.9,70.8,29.84,ESE,111,11.5,11.5,90,0.00,BKN,SKC,0.01,911.0,WeatherDisplay:10.37,2013-04-29 19:01:00,
2013-04-29 14:06:00,73.8,71.0,29.84,ESE,114,11.5,11.5,91,0.00,BKN,SKC,0.01,893.0,WeatherDisplay:10.37,2013-04-29 19:06:00,
2013-04-29 14:11:00,73.6,70.8,29.84,ENE,64,10.4,10.4,91,0.00,BKN,SKC,0.01,902.0,WeatherDisplay:10.37,2013-04-29 19:11:00,
2013-04-29 14:16:00,73.7,70.9,29.84,East,96,11.5,11.5,91,0.00,BKN,SKC,0.01,854.0,WeatherDisplay:10.37,2013-04-29 19:16:00,
2013-04-29 14:21:00,73.8,71.0,29.84,East,96,15.0,15.0,91,0.00,BKN,SKC,0.01,896.0,WeatherDisplay:10.37,2013-04-29 19:21:00,
2013-04-29 14:26:00,73.5,70.7,29.83,ENE,71,11.5,11.5,91,0.00,BKN,SKC,0.01,828.0,WeatherDisplay:10.37,2013-04-29 19:26:00,
2013-04-29 14:31:00,73.4,70.9,29.83,East,91,9.2,9.2,92,0.00,BKN,SKC,0.01,889.0,WeatherDisplay:10.37,2013-04-29 19:31:00,
2013-04-29 14:36:00,73.3,70.8,29.83,East,88,11.5,11.5,92,0.00,BKN,SKC,0.01,766.0,WeatherDisplay:10.37,2013-04-29 19:36:00,
2013-04-29 14:41:00,73.3,70.8,29.82,ENE,76,11.5,11.5,92,0.00,BKN,SKC,0.01,923.0,WeatherDisplay:10.37,2013-04-29 19:41:00,
2013-04-29 14:46:00,73.6,71.4,29.82,ENE,61,8.1,8.1,93,0.00,BKN,SKC,0.01,914.0,WeatherDisplay:10.37,2013-04-29 19:46:00,
2013-04-29 14:51:00,73.8,71.3,29.82,East,90,12.7,12.7,92,0.00,BKN,SKC,0.01,816.0,WeatherDisplay:10.37,2013-04-29 19:51:00,
2013-04-29 14:56:00,73.9,71.4,29.81,East,88,13.8,13.8,92,0.00,BKN,SKC,0.01,494.0,WeatherDisplay:10.37,2013-04-29 19:56:00,
2013-04-29 15:01:00,73.6,71.1,29.81,East,85,15.0,15.0,92,0.00,BKN,SKC,0.01,353.0,WeatherDisplay:10.37,2013-04-29 20:01:00,
2013-04-29 15:06:00,73.4,71.3,29.81,ENE,65,11.5,11.5,93,0.00,SCT,SKC,0.01,946.0,WeatherDisplay:10.37,2013-04-29 20:06:00,
2013-04-29 15:11:00,73.2,70.7,29.81,ENE,67,13.8,13.8,92,0.00,SCT,SKC,0.01,854.0,WeatherDisplay:10.37,2013-04-29 20:11:00,
2013-04-29 15:16:00,73.3,71.2,29.81,ENE,72,12.0,12.0,93,0.00,SCT,SKC,0.01,872.0,WeatherDisplay:10.37,2013-04-29 20:16:00,
2013-04-29 15:21:00,73.4,71.3,29.81,East,83,11.5,11.5,93,0.00,SCT,SKC,0.01,527.0,WeatherDisplay:10.37,2013-04-29 20:21:00,
2013-04-29 15:26:00,73.7,71.5,29.81,East,96,11.5,11.5,93,0.00,SCT,SKC,0.01,896.0,WeatherDisplay:10.37,2013-04-29 20:26:00,
2013-04-29 15:31:00,74.0,71.2,29.81,East,94,12.7,12.7,91,0.00,SCT,SKC,0.01,812.0,WeatherDisplay:10.37,2013-04-29 20:31:00,
2013-04-29 15:36:00,74.3,71.8,29.81,SE,127,8.0,8.0,92,0.00,SCT,SKC,0.01,664.0,WeatherDisplay:10.37,2013-04-29 20:36:00,
2013-04-29 15:41:00,74.4,71.6,29.81,East,89,13.0,13.0,91,0.00,SCT,SKC,0.01,341.0,WeatherDisplay:10.37,2013-04-29 20:41:00,
2013-04-29 15:46:00,73.9,71.1,29.81,ESE,115,11.5,11.5,91,0.00,SCT,SKC,0.01,338.0,WeatherDisplay:10.37,2013-04-29 20:46:00,
2013-04-29 15:51:00,73.8,71.3,29.81,ESE,103,12.7,12.7,92,0.00,SCT,SKC,0.01,816.0,WeatherDisplay:10.37,2013-04-29 20:51:00,
2013-04-29 15:56:00,73.5,71.0,29.79,East,92,15.0,15.0,92,0.00,SCT,SKC,0.01,274.0,WeatherDisplay:10.37,2013-04-29 20:56:00,
2013-04-29 16:01:00,73.5,71.0,29.79,East,98,12.7,12.7,92,0.00,SCT,SKC,0.01,758.0,WeatherDisplay:10.37,2013-04-29 21:01:00,
2013-04-29 16:06:00,73.3,71.2,29.79,ESE,109,15.0,15.0,93,0.00,BKN,SKC,0.01,297.0,WeatherDisplay:10.37,2013-04-29 21:06:00,
2013-04-29 16:11:00,73.4,71.3,29.79,East,98,12.7,12.7,93,0.00,BKN,SKC,0.01,227.0,WeatherDisplay:10.37,2013-04-29 21:11:00,
2013-04-29 16:16:00,73.5,71.4,29.79,East,95,14.0,14.0,93,0.00,BKN,SKC,0.01,155.0,WeatherDisplay:10.37,2013-04-29 21:16:00,
2013-04-29 16:21:00,73.3,71.2,29.79,East,82,11.5,11.5,93,0.00,BKN,SKC,0.01,197.0,WeatherDisplay:10.37,2013-04-29 21:21:00,
2013-04-29 16:26:00,73.1,71.0,29.79,East,81,13.0,13.0,93,0.00,BKN,SKC,0.01,269.0,WeatherDisplay:10.37,2013-04-29 21:26:00,
2013-04-29 16:31:00,73.3,71.2,29.79,East,96,11.5,11.5,93,0.00,BKN,SKC,0.01,436.0,WeatherDisplay:10.37,2013-04-29 21:31:00,
2013-04-29 16:36:00,73.1,71.0,29.79,ENE,76,16.1,16.1,93,0.00,BKN,SKC,0.01,343.0,WeatherDisplay:10.37,2013-04-29 21:36:00,
2013-04-29 16:41:00,73.0,70.9,29.78,East,90,16.1,16.1,93,0.00,BKN,SKC,0.01,316.0,WeatherDisplay:10.37,2013-04-29 21:41:00,
2013-04-29 16:46:00,73.1,71.3,29.78,East,82,11.5,11.5,94,0.00,BKN,SKC,0.01,471.0,WeatherDisplay:10.37,2013-04-29 21:46:00,
2013-04-29 16:51:00,73.3,71.2,29.78,ESE,120,15.0,15.0,93,0.00,BKN,SKC,0.01,424.0,WeatherDisplay:10.37,2013-04-29 21:51:00,
2013-04-29 16:56:00,73.4,71.6,29.78,ENE,74,12.7,12.7,94,0.00,BKN,SKC,0.01,508.0,WeatherDisplay:10.37,2013-04-29 21:56:00,
2013-04-29 17:01:00,73.5,71.4,29.78,ENE,76,15.0,15.0,93,0.00,BKN,SKC,0.01,287.0,WeatherDisplay:10.37,2013-04-29 22:01:00,
2013-04-29 17:06:00,73.6,71.4,29.78,SE,132,15.0,15.0,93,0.00,OVC,SKC,0.01,343.0,WeatherDisplay:10.37,2013-04-29 22:06:00,
2013-04-29 17:11:00,73.4,71.3,29.77,East,101,15.0,15.0,93,0.00,OVC,SKC,0.01,267.0,WeatherDisplay:10.37,2013-04-29 22:11:00,
2013-04-29 17:16:00,73.5,71.4,29.77,ENE,73,14.0,14.0,93,0.00,OVC,SKC,0.01,334.0,WeatherDisplay:10.37,2013-04-29 22:16:00,
2013-04-29 17:21:00,73.4,71.3,29.77,ESE,103,12.7,12.7,93,0.00,OVC,SKC,0.01,575.0,WeatherDisplay:10.37,2013-04-29 22:21:00,
2013-04-29 17:26:00,73.3,71.2,29.76,East,84,15.0,15.0,93,0.00,OVC,SKC,0.01,483.0,WeatherDisplay:10.37,2013-04-29 22:26:00,
2013-04-29 17:31:00,73.4,71.3,29.76,ENE,70,12.7,12.7,93,0.00,OVC,SKC,0.01,443.0,WeatherDisplay:10.37,2013-04-29 22:31:00,
2013-04-29 17:36:00,73.5,71.4,29.76,East,82,13.0,13.0,93,0.00,OVC,SKC,0.01,387.0,WeatherDisplay:10.37,2013-04-29 22:36:00,
2013-04-29 17:41:00,73.4,71.3,29.76,ESE,103,13.0,13.0,93,0.00,OVC,SKC,0.01,202.0,WeatherDisplay:10.37,2013-04-29 22:41:00,
2013-04-29 17:46:00,73.4,71.3,29.76,ESE,108,12.7,12.7,93,0.00,OVC,SKC,0.01,199.0,WeatherDisplay:10.37,2013-04-29 22:46:00,
2013-04-29 17:51:00,73.3,71.2,29.76,East,94,11.5,11.5,93,0.00,OVC,SKC,0.01,237.0,WeatherDisplay:10.37,2013-04-29 22:51:00,
2013-04-29 17:56:00,73.3,71.2,29.76,ESE,119,12.7,12.7,93,0.00,OVC,SKC,0.01,190.0,WeatherDisplay:10.37,2013-04-29 22:56:00,
2013-04-29 18:01:00,73.2,71.1,29.76,East,92,11.5,11.5,93,0.00,OVC,SKC,0.01,98.0,WeatherDisplay:10.37,2013-04-29 23:01:00,
2013-04-29 18:06:00,73.1,71.3,29.76,East,94,11.5,11.5,94,0.00,OVC,SKC,0.01,86.0,WeatherDisplay:10.37,2013-04-29 23:06:00,
2013-04-29 18:11:00,73.0,71.2,29.76,East,99,11.5,11.5,94,0.00,OVC,SKC,0.01,100.0,WeatherDisplay:10.37,2013-04-29 23:11:00,
2013-04-29 18:16:00,72.8,71.0,29.76,East,80,12.7,12.7,94,0.00,OVC,SKC,0.01,83.0,WeatherDisplay:10.37,2013-04-29 23:16:00,
2013-04-29 18:21:00,72.8,71.0,29.76,East,94,10.4,10.4,94,0.00,OVC,SKC,0.01,77.0,WeatherDisplay:10.37,2013-04-29 23:21:00,
2013-04-29 18:26:00,72.7,70.9,29.76,ESE,104,11.5,11.5,94,0.00,OVC,SKC,0.01,62.0,WeatherDisplay:10.37,2013-04-29 23:26:00,
2013-04-29 18:31:00,72.6,71.1,29.76,ENE,76,11.5,11.5,95,0.00,OVC,SKC,0.01,62.0,WeatherDisplay:10.37,2013-04-29 23:31:00,
2013-04-29 18:36:00,72.5,70.7,29.76,East,92,13.8,13.8,94,0.00,CLR,SKC,0.01,62.0,WeatherDisplay:10.37,2013-04-29 23:36:00,
2013-04-29 18:41:00,72.5,71.0,29.76,East,82,11.5,11.5,95,0.00,CLR,SKC,0.01,56.0,WeatherDisplay:10.37,2013-04-29 23:41:00,
2013-04-29 18:46:00,72.4,70.9,29.76,East,86,13.8,13.8,95,0.00,CLR,SKC,0.01,40.0,WeatherDisplay:10.37,2013-04-29 23:46:00,
2013-04-29 18:51:00,72.4,70.9,29.76,East,97,10.0,10.0,95,0.00,CLR,SKC,0.01,32.0,WeatherDisplay:10.37,2013-04-29 23:51:00,
2013-04-29 18:56:00,72.3,70.8,29.76,ENE,71,11.5,11.5,95,0.00,CLR,SKC,0.01,25.0,WeatherDisplay:10.37,2013-04-29 23:56:00,
2013-04-29 19:01:00,72.3,70.8,29.76,ENE,78,8.1,8.1,95,0.00,CLR,SKC,0.01,14.0,WeatherDisplay:10.37,2013-04-30 00:01:00,
2013-04-29 19:06:00,72.3,70.8,29.76,ESE,106,11.5,11.5,95,0.00,CLR,SKC,0.01,16.0,WeatherDisplay:10.37,2013-04-30 00:06:00,
2013-04-29 19:11:00,72.3,70.8,29.76,East,79,10.4,10.4,95,0.00,CLR,SKC,0.01,26.0,WeatherDisplay:10.37,2013-04-30 00:11:00,
2013-04-29 19:16:00,72.3,70.8,29.76,East,86,6.9,6.9,95,0.00,CLR,SKC,0.01,35.0,WeatherDisplay:10.37,2013-04-30 00:16:00,
2013-04-29 19:21:00,72.3,70.8,29.76,ENE,70,9.2,9.2,95,0.00,CLR,SKC,0.01,26.0,WeatherDisplay:10.37,2013-04-30 00:21:00,
2013-04-29 19:26:00,72.3,71.1,29.76,ESE,105,9.2,9.2,96,0.00,CLR,SKC,0.01,18.0,WeatherDisplay:10.37,2013-04-30 00:26:00,
2013-04-29 19:31:00,72.2,70.7,29.76,East,81,11.5,11.5,95,0.00,CLR,SKC,0.01,21.0,WeatherDisplay:10.37,2013-04-30 00:31:00,
2013-04-29 19:36:00,72.2,71.0,29.76,ENE,71,10.4,10.4,96,0.00,CLR,SKC,0.01,14.0,WeatherDisplay:10.37,2013-04-30 00:36:00,
2013-04-29 19:41:00,72.1,70.9,29.77,East,94,9.2,9.2,96,0.00,CLR,SKC,0.01,7.0,WeatherDisplay:10.37,2013-04-30 00:41:00,
2013-04-29 19:46:00,72.2,71.0,29.77,ENE,75,10.4,10.4,96,0.00,CLR,SKC,0.01,5.0,WeatherDisplay:10.37,2013-04-30 00:46:00,
2013-04-29 19:51:00,72.1,70.9,29.77,ENE,71,11.5,11.5,96,0.00,CLR,SKC,0.01,0.0,WeatherDisplay:10.37,2013-04-30 00:51:00,
2013-04-29 19:56:00,72.0,70.8,29.77,ENE,74,10.4,10.4,96,0.00,CLR,SKC,0.01,0.0,WeatherDisplay:10.37,2013-04-30 00:56:00,
2013-04-29 20:01:00,72.0,70.8,29.77,East,86,6.9,6.9,96,0.00,CLR,SKC,0.01,0.0,WeatherDisplay:10.37,2013-04-30 01:01:00,
2013-04-29 20:06:00,71.8,70.6,29.77,East,86,11.5,11.5,96,0.00,CLR,SKC,0.01,0.0,WeatherDisplay:10.37,2013-04-30 01:06:00,
2013-04-29 20:11:00,71.8,70.6,29.77,ENE,71,10.4,10.4,96,0.00,CLR,SKC,0.01,0.0,WeatherDisplay:10.37,2013-04-30 01:11:00,
2013-04-29 20:16:00,71.8,70.6,29.77,ENE,74,10.4,10.4,96,0.01,RA,SKC,0.03,0.0,WeatherDisplay:10.37,2013-04-30 01:16:00,
2013-04-29 20:21:00,71.7,70.5,29.77,East,97,11.5,11.5,96,0.01,RA,SKC,0.03,0.0,WeatherDisplay:10.37,2013-04-30 01:21:00,
2013-04-29 20:26:00,71.7,70.8,29.77,ESE,111,11.5,11.5,97,0.01,CLR,SKC,0.03,0.0,WeatherDisplay:10.37,2013-04-30 01:26:00,
2013-04-29 20:31:00,71.6,70.7,29.77,East,92,12.7,12.7,97,0.03,RA,SKC,0.06,0.0,WeatherDisplay:10.37,2013-04-30 01:31:00,
2013-04-29 20:36:00,71.6,70.4,29.77,ESE,109,5.0,5.0,96,0.09,RA,SKC,0.10,0.0,WeatherDisplay:10.37,2013-04-30 01:36:00,
2013-04-29 20:41:00,71.3,70.1,29.78,East,96,8.1,8.1,96,0.11,RA,SKC,0.13,0.0,WeatherDisplay:10.37,2013-04-30 01:41:00,
2013-04-29 20:46:00,71.3,70.4,29.78,East,93,5.8,5.8,97,0.13,RA,SKC,0.14,0.0,WeatherDisplay:10.37,2013-04-30 01:46:00,
2013-04-29 20:51:00,71.2,70.3,29.78,East,95,3.5,3.5,97,0.13,RA,SKC,0.14,0.0,WeatherDisplay:10.37,2013-04-30 01:51:00,
2013-04-29 20:56:00,71.4,70.5,29.79,East,96,3.5,3.5,97,0.14,RA,SKC,0.16,0.0,WeatherDisplay:10.37,2013-04-30 01:56:00,
2013-04-29 21:01:00,71.5,70.6,29.79,East,89,5.8,5.8,97,0.14,RA,SKC,0.16,0.0,WeatherDisplay:10.37,2013-04-30 02:01:00,
2013-04-29 21:06:00,71.6,70.7,29.79,ENE,65,3.5,3.5,97,0.14,CLR,SKC,0.16,0.0,WeatherDisplay:10.37,2013-04-30 02:06:00,
2013-04-29 21:11:00,71.6,70.7,29.81,NW,309,4.0,4.0,97,0.14,CLR,SKC,0.16,0.0,WeatherDisplay:10.37,2013-04-30 02:11:00,
2013-04-29 21:16:00,71.7,70.8,29.81,NW,316,6.9,6.9,97,0.13,CLR,SKC,0.16,0.0,WeatherDisplay:10.37,2013-04-30 02:16:00,
2013-04-29 21:21:00,69.3,67.8,29.81,NNE,13,6.9,7.1,95,0.13,CLR,SKC,0.16,0.0,WeatherDisplay:10.37,2013-04-30 02:21:00,
2013-04-29 21:26:00,68.8,67.3,29.81,SE,138,10.4,10.4,95,0.13,CLR,SKC,0.16,0.0,WeatherDisplay:10.37,2013-04-30 02:26:00,
2013-04-29 21:31:00,68.7,66.9,29.81,ENE,65,12.7,12.7,94,0.11,CLR,SKC,0.16,0.0,WeatherDisplay:10.37,2013-04-30 02:31:00,
2013-04-29 21:36:00,68.8,67.0,29.81,East,97,5.8,5.8,94,0.06,CLR,SKC,0.16,0.0,WeatherDisplay:10.37,2013-04-30 02:36:00,
2013-04-29 21:41:00,69.4,67.6,29.81,ENE,75,10.4,10.4,94,0.03,CLR,SKC,0.16,0.0,WeatherDisplay:10.37,2013-04-30 02:41:00,
2013-04-29 21:46:00,69.5,67.1,29.81,NE,51,15.0,15.0,92,0.01,CLR,SKC,0.16,0.0,WeatherDisplay:10.37,2013-04-30 02:46:00,
2013-04-29 21:51:00,68.8,66.1,29.81,NE,46,12.7,12.7,91,0.01,CLR,SKC,0.16,0.0,WeatherDisplay:10.37,2013-04-30 02:51:00,
2013-04-29 21:56:00,69.1,66.7,29.81,NE,53,9.2,9.2,92,0.00,CLR,SKC,0.16,0.0,WeatherDisplay:10.37,2013-04-30 02:56:00,
2013-04-29 22:01:00,69.7,67.0,29.81,ENE,77,13.0,13.0,91,0.00,CLR,SKC,0.16,0.0,WeatherDisplay:10.37,2013-04-30 03:01:00,
2013-04-29 22:06:00,69.8,67.1,29.81,East,85,13.8,13.8,91,0.00,CLR,SKC,0.16,0.0,WeatherDisplay:10.37,2013-04-30 03:06:00,
2013-04-29 22:11:00,68.8,65.7,29.80,ENE,70,11.5,11.5,90,0.00,CLR,SKC,0.16,0.0,WeatherDisplay:10.37,2013-04-30 03:11:00,
2013-04-29 22:16:00,68.7,66.0,29.80,ENE,62,11.5,11.5,91,0.00,CLR,SKC,0.16,0.0,WeatherDisplay:10.37,2013-04-30 03:16:00,
2013-04-29 22:21:00,68.8,65.4,29.80,East,95,19.6,19.6,89,0.00,CLR,SKC,0.16,0.0,WeatherDisplay:10.37,2013-04-30 03:21:00,
2013-04-29 22:26:00,69.0,65.9,29.80,ENE,74,11.5,11.5,90,0.00,CLR,SKC,0.16,0.0,WeatherDisplay:10.37,2013-04-30 03:26:00,
2013-04-29 22:31:00,69.4,66.3,29.80,East,84,12.7,12.7,90,0.00,CLR,SKC,0.16,0.0,WeatherDisplay:10.37,2013-04-30 03:31:00,
2013-04-29 22:36:00,70.0,66.9,29.80,ENE,78,11.5,11.5,90,0.00,CLR,SKC,0.16,0.0,WeatherDisplay:10.37,2013-04-30 03:36:00,
2013-04-29 22:41:00,70.4,67.0,29.79,ENE,61,14.0,14.0,89,0.00,CLR,SKC,0.16,0.0,WeatherDisplay:10.37,2013-04-30 03:41:00,
2013-04-29 22:46:00,70.3,66.9,29.79,East,88,16.1,16.1,89,0.00,CLR,SKC,0.16,0.0,WeatherDisplay:10.37,2013-04-30 03:46:00,
2013-04-29 22:51:00,70.0,66.6,29.79,ENE,68,15.0,15.0,89,0.00,CLR,SKC,0.16,0.0,WeatherDisplay:10.37,2013-04-30 03:51:00,
2013-04-29 22:56:00,69.9,66.8,29.81,East,88,14.0,14.0,90,0.00,CLR,SKC,0.16,0.0,WeatherDisplay:10.37,2013-04-30 03:56:00,
2013-04-29 23:01:00,70.0,67.3,29.81,East,80,15.0,15.0,91,0.00,CLR,SKC,0.16,0.0,WeatherDisplay:10.37,2013-04-30 04:01:00,
2013-04-29 23:06:00,69.9,67.2,29.81,ENE,72,17.3,17.3,91,0.00,CLR,SKC,0.16,0.0,WeatherDisplay:10.37,2013-04-30 04:06:00,
2013-04-29 23:11:00,69.9,67.2,29.81,East,88,15.0,15.0,91,0.00,CLR,SKC,0.16,0.0,WeatherDisplay:10.37,2013-04-30 04:11:00,
2013-04-29 23:16:00,70.0,67.3,29.81,ENE,78,16.1,16.1,91,0.00,CLR,SKC,0.16,0.0,WeatherDisplay:10.37,2013-04-30 04:16:00,
2013-04-29 23:21:00,69.7,67.0,29.81,East,82,17.3,17.3,91,0.00,CLR,SKC,0.16,0.0,WeatherDisplay:10.37,2013-04-30 04:21:00,
2013-04-29 23:26:00,69.8,67.1,29.81,East,84,17.3,17.3,91,0.00,CLR,SKC,0.16,0.0,WeatherDisplay:10.37,2013-04-30 04:26:00,
2013-04-29 23:31:00,70.1,67.3,29.81,East,92,11.5,11.5,91,0.00,CLR,SKC,0.16,0.0,WeatherDisplay:10.37,2013-04-30 04:31:00,
2013-04-29 23:36:00,70.1,67.7,29.81,East,101,13.8,13.8,92,0.00,CLR,SKC,0.16,0.0,WeatherDisplay:10.37,2013-04-30 04:36:00,
2013-04-29 23:41:00,70.0,67.3,29.80,East,89,11.5,11.5,91,0.00,CLR,SKC,0.16,0.0,WeatherDisplay:10.37,2013-04-30 04:41:00,
2013-04-29 23:46:00,70.1,67.7,29.80,East,91,16.1,16.1,92,0.00,CLR,SKC,0.16,0.0,WeatherDisplay:10.37,2013-04-30 04:46:00,
2013-04-29 23:51:00,70.0,67.6,29.80,ESE,107,12.7,12.7,92,0.00,CLR,SKC,0.16,0.0,WeatherDisplay:10.37,2013-04-30 04:51:00,
2013-04-29 23:56:00,69.9,67.8,29.81,East,95,10.4,10.4,93,0.00,CLR,SKC,0.16,0.0,WeatherDisplay:10.37,2013-04-30 04:56:00,